Location: Dadaneti
(42.2881°N, 44.5208°E)
Time: 16:53:18
(UTC+00:00)

Daily predictions for brighter satellites

Satellite Brightness Start Highest point End
(mag) Time Altitude Azimuth Time Altitude Azimuth Time Altitude Azimuth
Cosmos 1666 Rocket 3.6 14:19:32 10° N 14:24:00 71° E 14:28:24 10° SSE
MOS 1 Rocket 3.6 14:20:25 10° SSE 14:25:39 62° ENE 14:30:41 10° N
UNK 3.7 14:23:38 10° NNE 14:28:10 85° ESE 14:32:41 10° SSW
Cosmos 2251 Rocket 4.3 14:23:10 10° NNW 14:28:19 58° WSW 14:33:26 10° S
Meteor 1-15 Rocket 4.4 14:22:45 10° N 14:28:36 58° ENE 14:34:21 10° SSE
Cosmos 1328 Rocket 3.5 14:24:39 10° S 14:28:59 86° E 14:33:24 10° N
Cosmos 1953 2.7 14:27:13 10° N 14:30:40 36° ENE 14:34:05 10° SE
Landsat 7 3.7 14:26:03 10° SSE 14:30:42 77° ENE 14:35:21 10° N
ISS -3.7 14:29:02 10° SW 14:32:21 71° SE 14:35:40 10° ENE
BREEZE-M DEB (TANK) 2.4 14:30:44 10° SW 14:32:52 51° SE 14:36:28 10° ENE
Meteor 1-13 Rocket 4.3 14:29:34 10° S 14:35:15 86° E 14:41:07 10° N
Cosmos 1340 Rocket 4.3 14:33:27 10° NNE 14:35:46 15° ENE 14:38:06 10° ESE
SMAP 3.3 14:32:56 10° S 14:37:35 78° WSW 14:42:15 10° NNW
Meteor 1-22 Rocket 4.2 14:32:21 10° N 14:37:59 88° WSW 14:43:22 10° S
Cosmos 2056 Rocket 4.2 14:34:05 10° SW 14:39:07 55° WNW 14:44:10 10° NNE
SKYMED 2 4.1 14:38:56 10° NNE 14:43:00 38° E 14:47:03 10° SSE
ARIANE 5 R/B 2.5 14:39:43 10° SSE 14:44:55 82° ENE 14:50:10 10° NNW
Cosmos 1603 3.7 14:39:23 10° S 14:44:58 64° ESE 14:50:32 10° NNE
BREEZE-M DEB (TANK) 2.2 14:42:49 10° WSW 14:45:14 86° SSE 14:51:02 12° ENE
SL-8 Rocket 3.9 14:39:15 10° N 14:45:28 78° E 14:51:37 10° S
AQUARIUS 4.0 14:42:45 10° SSE 14:47:08 73° ENE 14:51:33 10° N
SJ-6F 4.4 14:44:03 10° SSE 14:48:01 57° ENE 14:52:00 10° N
USA 238 DEB 4.1 14:40:58 10° NNW 14:48:20 60° NE 14:56:18 10° SE
USA 238 4.1 14:41:04 10° NNW 14:48:26 59° NE 14:56:24 10° SE
USA 267 4.2 14:45:43 11° ENE 14:50:50 29° NNE 14:56:18 10° NW
Dummy Sat-01 4.5 14:47:33 10° N 14:51:11 81° E 14:54:47 10° S
SJ 16-02 3.1 14:48:54 10° NW 14:52:48 35° WSW 14:56:42 10° SSW
Cosmos 1833 Rocket 4.2 14:50:37 10° SE 14:53:40 15° E 14:55:00 14° E
Cosmos 1515 Rocket 3.5 14:49:35 10° S 14:53:56 65° E 14:58:19 10° NNE
YAOGAN 1 3.1 14:50:55 10° SE 14:54:44 33° ENE 14:58:35 10° N
CZ-3 Stage 3 4.4 14:41:27 10° SW 14:55:31 28° S 15:00:55 10° ESE
OPS 6432 4.4 14:53:41 10° NNW 14:56:55 49° NE 15:00:06 10° SE
Cosmos 864 Rocket 4.5 14:51:17 10° N 14:57:32 87° E 15:03:48 10° S
Cosmos 2369 Rocket 4.2 14:57:52 10° NW 15:02:50 32° WSW 15:07:45 10° SSW
SL-24 R/B - RUBIN 2 4.2 14:59:11 10° NNW 15:03:07 32° NE 15:06:07 15° ESE
Resurs 01 Rocket 2.8 15:00:33 10° ESE 15:03:41 20° ENE 15:06:49 10° NNE
Cosmos 968 Rocket 3.4 15:00:21 10° NNW 15:05:31 84° ENE 15:10:37 10° SSE
Cosmos 1943 4.3 15:02:23 10° SW 15:07:41 42° WNW 15:13:03 10° NNE
Cosmos 1821 Rocket 3.9 15:03:49 10° N 15:10:01 71° E 15:16:06 10° SSE
Okean 2 3.2 15:07:11 10° S 15:10:58 58° E 15:14:46 10° NNE
Radarsat Rocket 4.1 15:08:39 10° SE 15:14:46 52° ENE 15:20:27 10° N
Cosmos 1331 Rocket 4.1 15:10:50 10° SSW 15:15:56 74° WNW 15:21:06 10° NNE
Cosmos 1470 Rocket 4.3 15:13:28 10° NNW 15:17:42 55° W 15:21:56 10° S
Cosmos 292 Rocket 3.8 15:14:31 10° N 15:19:07 51° ENE 15:23:40 10° SE
RESURS DK-1 2.3 15:15:26 10° SSW 15:19:20 58° ESE 15:21:27 25° NE
Cosmos 1741 Rocket 3.9 15:14:34 10° NNW 15:19:48 77° ENE 15:24:59 10° SSE
Cosmos 2181 Rocket 4.1 15:15:08 10° S 15:21:16 79° W 15:27:31 10° N
SPOT 1/Viking Rocket 3.7 15:19:17 10° S 15:24:25 75° WSW 15:29:35 10° NNW
Cosmos 1933 Rocket 3.4 15:21:29 10° N 15:25:53 78° E 15:30:14 10° SSE
Cosmos 1302 Rocket 4.0 15:21:13 10° S 15:26:21 58° ESE 15:30:10 18° NNE
CZ-2D R/B 3.1 15:23:09 10° SSE 15:26:59 75° ENE 15:30:49 10° N
Cosmos 1850 Rocket 4.0 15:21:47 10° NNW 15:27:07 87° WSW 15:32:26 10° SSE
NOSS 3-4 (A) 3.7 15:22:04 10° SW 15:27:12 55° NW 15:32:03 14° NNE
NOSS 3-4 (C) 3.7 15:22:11 10° SW 15:27:21 56° NW 15:32:13 14° NNE
Helios 1A Rocket 3.9 15:38:53 24° SSE 15:38:53 24° SSE 15:40:27 10° S
DNEPR-1 R/B 4.3 15:35:16 10° SW 15:39:37 48° NW 15:42:10 21° NNE
NOAA 6 3.9 15:34:57 10° SSE 15:39:59 67° ENE 15:45:04 10° N
USA 276 3.4 15:38:30 10° W 15:40:09 25° NW 15:40:09 25° NW
IRAS Rocket 4.2 15:36:04 10° SSE 15:41:26 57° ENE 15:46:52 10° N
USA 59 Rocket 2.0 15:40:10 10° N 15:40:21 11° N 15:40:21 11° N
Meteor 2-8 Rocket 4.4 15:36:54 10° N 15:42:58 58° ENE 15:49:01 10° SSE
Cosmos 1452 Rocket 4.1 15:39:36 10° SW 15:44:44 55° WNW 15:49:55 10° NNE
Meteor 2-15 Rocket 4.4 15:40:28 10° N 15:46:38 90° ENE 15:52:45 10° S
COSMO-SKYMED 1 2.9 15:46:34 12° N 15:50:22 60° WNW 15:54:25 10° SSW
CARTOSAT-1 3.3 15:46:13 10° SSE 15:50:24 78° ENE 15:54:38 10° N
Cosmos 1869 Rocket 3.6 15:48:07 10° N 15:52:31 78° W 15:56:51 10° S
Cosmos 1934 Rocket 3.9 15:47:06 10° N 15:53:08 56° E 15:59:14 10° SSE
Cosmos 1656 3.5 15:48:52 10° NNW 15:54:29 81° ENE 16:00:00 10° SSE
Cosmos 1992 Rocket 3.9 15:50:55 10° S 15:55:58 58° ESE 15:56:40 53° ENE
USA 215 3.2 15:57:19 33° NE 16:00:33 87° NW 16:07:05 10° SW
Cosmos 1980 Rocket 4.3 16:01:45 10° N 16:02:23 12° N 16:02:23 12° N
Nadezhda 3 Rocket 4.3 16:01:42 10° SSW 16:07:46 66° W 16:13:54 10° N
ISS -1.6 16:06:35 10° WNW 16:08:38 22° NW 16:08:38 22° NW
Cosmos 1340 Rocket 4.2 16:07:58 10° NNW 16:11:29 36° W 16:15:00 10° SSW
COSMOS 2455 4.1 16:16:53 10° NNW 16:20:02 26° N 16:20:02 26° N
Cosmos 1697 Rocket 3.8 16:24:57 10° NNW 16:28:04 32° N 16:28:04 32° N
USA 267 3.2 16:33:04 63° NE 16:33:05 63° NE 16:39:32 10° NW
Cosmos 1833 Rocket 2.7 16:31:12 10° SSW 16:36:44 76° WNW 16:36:44 76° WNW
Resurs 01 Rocket 2.8 16:35:40 10° SSW 16:39:45 40° W 16:43:53 10° NNW
DELTA 2 R/B (1) 4.4 16:37:41 10° WSW 16:41:47 43° SSW 16:41:47 43° SSW
